Location: Malanoce
(44.2500°N, 7.4667°E)
Time: 13:49:17
(UTC+00:00)

Cosmos 2034 Rocket - Pass Details

Date: 17 November 2025
Orbit: 958 x 998 km, 82.9° (Epoch: 06 December)

Event Time Altitude Azimuth Distance (km) Brightness Sun altitude
Rises 17:28:02 0° 165° (SSE) 3,634 7.0 -15.5°
Reaches altitude 10° 17:30:37 10° 158° (SSE) 2,697 6.2 -15.9°
Maximum altitude 17:36:24 43° 89° (E) 1,335 4.3 -17.0°
Drops below altitude 10° 17:42:14 10° 20° (NNE) 2,739 6.1 -18.0°
Sets 17:44:53 0° 15° (NNE) 3,697 6.8 -18.5°
